Simultaneous Nadir Overpasses (SNOs) Predictions

Prediction of SNOs between GOES-17 and METOP-C Satellite Orbit:

Table of predicted SNOs for the next 14.0 days since TLE Epoch: 3/25/2023
Index Date Time (GOES-17) GOES-17 Lat,Lon METOP-C Lat,Lon Distance(km) Time Diff (sec)
1 03/25/2023 16:16:02 -0.02,-104.77 -0.83,-101.17 410.98 80
2 03/27/2023 04:35:03 0.02,-104.74 -0.23,-105.76 116.83 80
3 03/28/2023 04:11:44 0.03,-104.74 0.89,-100.77 451.71 80
4 03/29/2023 16:30:38 -0.03,-104.77 0.11,-105.34 65.53 80
5 04/01/2023 04:31:40 0.03,-104.74 -0.01,-104.95 24.16 80
6 04/03/2023 16:29:55 -0.03,-104.78 -0.08,-104.53 27.96 80
7 04/05/2023 04:48:54 -0.02,-104.75 -0.99,-109.12 497.46 80
8 04/06/2023 04:25:35 -0.02,-104.75 0.10,-104.12 71.56 80
9 04/07/2023 16:44:29 0.01,-104.79 0.87,-108.70 445.60 80
